DAL160 KMSP-EHAM

Flight info

Callsign DAL160
Flight time N/A
Altitude 37000
Route WLSTN7 WLSTN DCT CMX DCT BAFAL DCT ROUND/N0493F390 DCT PUVOK DCT CUDDY/M084F390 DCT 58N050W 59N040W 59N030W 58N020W 58N015W DCT GOMUP/N0481F390 DCT GINGA/N0482F410 DCT GOW DCT FENIK DCT TLA DCT NATEB DCT ROKAN DCT TOPPA
Aircraft A359/H-SADE2E3GHIJ1J4J5M1P2RWXYZ/LB1D1G1

Departure

Time 2026-05-04 21:07
Airport Minneapolis–Saint Paul International Airport / Wold–Chamberlain Field (KMSP)

Arrival

Time N/A
Airport Amsterdam Airport Schiphol (EHAM)
Time Latitude Longitude Altitude Speed Heading
2026-05-04 20:12 44.88121 -93.21296 813 ft 0 kts 45°
2026-05-04 20:53 44.88117 -93.21303 824 ft 4 kts 45°
2026-05-04 20:53 44.88098 -93.21330 831 ft 4 kts 45°
2026-05-04 20:54 44.88079 -93.21357 824 ft 4 kts 45°
2026-05-04 20:54 44.88064 -93.21379 824 ft 4 kts 60°
2026-05-04 20:54 44.88058 -93.21411 827 ft 4 kts 113°
2026-05-04 20:54 44.88073 -93.21438 828 ft 4 kts 135°
2026-05-04 20:55 44.88086 -93.21456 828 ft 0 kts 135°
2026-05-04 20:58 44.88082 -93.21450 828 ft 4 kts 135°
2026-05-04 20:58 44.88045 -93.21398 827 ft 13 kts 135°
2026-05-04 20:59 44.87985 -93.21287 826 ft 15 kts 121°
2026-05-04 20:59 44.87931 -93.21161 825 ft 16 kts 121°
2026-05-04 20:59 44.87874 -93.21029 824 ft 16 kts 122°
2026-05-04 20:59 44.87814 -93.20890 826 ft 17 kts 121°
2026-05-04 21:00 44.87750 -93.20743 828 ft 18 kts 122°
2026-05-04 21:00 44.87681 -93.20586 825 ft 20 kts 121°
2026-05-04 21:00 44.87608 -93.20416 829 ft 21 kts 120°
2026-05-04 21:00 44.87534 -93.20241 824 ft 19 kts 122°
2026-05-04 21:01 44.87490 -93.20141 829 ft 6 kts 122°
2026-05-04 21:01 44.87476 -93.20110 829 ft 1 kts 122°
2026-05-04 21:01 44.87475 -93.20108 829 ft 0 kts 122°
2026-05-04 21:05 44.87455 -93.20084 838 ft 7 kts 153°
2026-05-04 21:05 44.87391 -93.20105 828 ft 11 kts 214°
2026-05-04 21:05 44.87384 -93.20194 833 ft 10 kts 293°
2026-05-04 21:06 44.87399 -93.20229 830 ft 0 kts 302°
2026-05-04 21:06 44.87403 -93.20238 829 ft 5 kts 301°
2026-05-04 21:06 44.87494 -93.20447 824 ft 53 kts 301°
2026-05-04 21:06 44.87785 -93.21118 826 ft 105 kts 301°
2026-05-04 21:07 44.88241 -93.22159 1022 ft 131 kts 302°
2026-05-04 21:07 44.88741 -93.23215 1546 ft 127 kts 303°
2026-05-04 21:07 44.89234 -93.24264 1971 ft 137 kts 302°
2026-05-04 21:07 44.89733 -93.25512 2234 ft 156 kts 298°
2026-05-04 21:08 44.90277 -93.26942 2524 ft 175 kts 299°
2026-05-04 21:08 44.90905 -93.28513 2824 ft 192 kts 301°
2026-05-04 21:08 44.91804 -93.29968 3258 ft 204 kts 319°
2026-05-04 21:08 44.93167 -93.30832 3504 ft 232 kts 349°
2026-05-04 21:09 44.94798 -93.30328 3967 ft 256 kts 26°
2026-05-04 21:09 44.96075 -93.28486 4621 ft 268 kts 49°
2026-05-04 21:09 44.97425 -93.26715 5186 ft 262 kts 24°
2026-05-04 21:09 44.99009 -93.25419 5841 ft 267 kts 25°
2026-05-04 21:10 45.00612 -93.24030 6521 ft 272 kts 27°
2026-05-04 21:10 45.02054 -93.22279 7154 ft 284 kts 43°
2026-05-04 21:10 45.03224 -93.19960 7761 ft 295 kts 52°
2026-05-04 21:10 45.04300 -93.17422 8401 ft 303 kts 53°
2026-05-04 21:11 45.05364 -93.14811 9034 ft 310 kts 53°
2026-05-04 21:11 45.06445 -93.12135 9679 ft 316 kts 53°
2026-05-04 21:11 45.07548 -93.09398 10226 ft 325 kts 54°
2026-05-04 21:11 45.08702 -93.06539 10538 ft 343 kts 54°
2026-05-04 21:12 45.09898 -93.03571 10838 ft 360 kts 54°
2026-05-04 21:12 45.11167 -93.00407 11129 ft 377 kts 55°
2026-05-04 21:12 45.12492 -92.97094 11465 ft 392 kts 55°
2026-05-04 21:12 45.13849 -92.93687 11940 ft 402 kts 56°
2026-05-04 21:13 45.15238 -92.90200 12481 ft 409 kts 56°
2026-05-04 21:13 45.16170 -92.87857 12881 ft 414 kts 56°
2026-05-04 21:13 45.18066 -92.83088 13604 ft 422 kts 56°
2026-05-04 21:13 45.19515 -92.79437 14139 ft 428 kts 56°
2026-05-04 21:14 45.20982 -92.75737 14710 ft 432 kts 56°
2026-05-04 21:14 45.21962 -92.73262 15059 ft 436 kts 56°
2026-05-04 21:14 45.23457 -92.69484 15589 ft 441 kts 55°
2026-05-04 21:14 45.24899 -92.65594 16054 ft 451 kts 63°
2026-05-04 21:15 45.25794 -92.61264 16553 ft 460 kts 76°
2026-05-04 21:15 45.26433 -92.56783 17085 ft 466 kts 77°
2026-05-04 21:15 45.27060 -92.52236 17571 ft 471 kts 77°
2026-05-04 21:15 45.27690 -92.47710 18046 ft 476 kts 76°
2026-05-04 21:16 45.28338 -92.43084 18545 ft 480 kts 77°
2026-05-04 21:16 45.29001 -92.38358 19077 ft 483 kts 77°
2026-05-04 21:16 45.29652 -92.33717 19602 ft 486 kts 77°
2026-05-04 21:16 45.30315 -92.28984 20112 ft 490 kts 77°
2026-05-04 21:17 45.30985 -92.24200 20654 ft 493 kts 77°
2026-05-04 21:17 45.31652 -92.19410 21159 ft 497 kts 77°
2026-05-04 21:17 45.32323 -92.14581 21674 ft 500 kts 77°
2026-05-04 21:17 45.32998 -92.09702 22195 ft 503 kts 77°
2026-05-04 21:18 45.33666 -92.04865 22691 ft 507 kts 78°
2026-05-04 21:18 45.34347 -91.99915 23184 ft 511 kts 78°
2026-05-04 21:18 45.35029 -91.94936 23600 ft 514 kts 78°
2026-05-04 21:18 45.35714 -91.89927 24033 ft 517 kts 78°
2026-05-04 21:19 45.36400 -91.84886 24463 ft 520 kts 78°
2026-05-04 21:19 45.37087 -91.79829 24921 ft 524 kts 78°
2026-05-04 21:19 45.37781 -91.74701 25241 ft 530 kts 78°
2026-05-04 21:19 45.38470 -91.69588 25605 ft 533 kts 78°
2026-05-04 21:20 45.39168 -91.64392 26036 ft 536 kts 78°
2026-05-04 21:20 45.39865 -91.59177 26448 ft 539 kts 78°
2026-05-04 21:20 45.40564 -91.53935 26832 ft 542 kts 78°
2026-05-04 21:20 45.41267 -91.48644 27280 ft 544 kts 78°
2026-05-04 21:21 45.41970 -91.43328 27675 ft 546 kts 78°
2026-05-04 21:21 45.42673 -91.37995 28030 ft 550 kts 78°
2026-05-04 21:21 45.43377 -91.32636 28412 ft 553 kts 78°
2026-05-04 21:21 45.44084 -91.27233 28779 ft 556 kts 78°
2026-05-04 21:22 45.44793 -91.21796 29140 ft 559 kts 78°
2026-05-04 21:22 45.45501 -91.16337 29501 ft 562 kts 79°
2026-05-04 21:22 45.46208 -91.10917 29782 ft 565 kts 78°
2026-05-04 21:22 45.47233 -91.05494 30048 ft 565 kts 66°
2026-05-04 21:23 45.48930 -91.00479 30333 ft 559 kts 52°
2026-05-04 21:23 45.51263 -90.96090 30615 ft 549 kts 40°
2026-05-04 21:23 45.53868 -90.92125 30873 ft 548 kts 38°
2026-05-04 21:23 45.56531 -90.88286 31162 ft 548 kts 37°
2026-05-04 21:24 45.59252 -90.84450 31449 ft 550 kts 36°
2026-05-04 21:24 45.61997 -90.80597 31659 ft 553 kts 36°
2026-05-04 21:24 45.64742 -90.76723 31925 ft 555 kts 37°
2026-05-04 21:24 45.67487 -90.72820 32186 ft 557 kts 37°
2026-05-04 21:25 45.70202 -90.68930 32543 ft 556 kts 37°
2026-05-04 21:25 45.72921 -90.65012 32910 ft 554 kts 37°
2026-05-04 21:25 45.75653 -90.61063 33277 ft 553 kts 37°
2026-05-04 21:25 45.78318 -90.57204 33641 ft 552 kts 37°
2026-05-04 21:26 45.81025 -90.53281 33872 ft 552 kts 37°
2026-05-04 21:26 45.83721 -90.49369 34179 ft 550 kts 37°
2026-05-04 21:26 45.86416 -90.45452 34476 ft 548 kts 38°
2026-05-04 21:26 45.89069 -90.41592 34764 ft 547 kts 38°
2026-05-04 21:27 45.91732 -90.37713 35016 ft 545 kts 38°
2026-05-04 21:27 45.94408 -90.33812 35238 ft 545 kts 38°
2026-05-04 21:27 45.97038 -90.29972 35471 ft 544 kts 39°
2026-05-04 21:27 45.99685 -90.26101 35832 ft 541 kts 39°
2026-05-04 21:28 46.02320 -90.22240 36112 ft 539 kts 39°
2026-05-04 21:28 46.04949 -90.18382 36298 ft 538 kts 39°
2026-05-04 21:28 46.07570 -90.14534 36479 ft 539 kts 40°
2026-05-04 21:28 46.10207 -90.10658 36509 ft 541 kts 40°
2026-05-04 21:29 46.15472 -90.02904 36511 ft 545 kts 40°
2026-05-04 21:29 46.20765 -89.95073 36512 ft 543 kts 40°
2026-05-04 21:30 46.26023 -89.87272 36513 ft 543 kts 40°
2026-05-04 21:30 46.31308 -89.79411 36517 ft 543 kts 40°
2026-05-04 21:31 46.39163 -89.67685 36510 ft 542 kts 41°
2026-05-04 21:32 46.44416 -89.59814 36514 ft 542 kts 41°
2026-05-04 21:32 46.49661 -89.51932 36534 ft 542 kts 41°
2026-05-04 21:33 46.54866 -89.44087 36516 ft 542 kts 41°
2026-05-04 21:33 46.60104 -89.36169 36519 ft 541 kts 41°
2026-05-04 21:34 46.65324 -89.28254 36512 ft 541 kts 41°
2026-05-04 21:34 46.70512 -89.20364 36511 ft 541 kts 41°
2026-05-04 21:35 46.75721 -89.12419 36508 ft 541 kts 41°
2026-05-04 21:35 46.80897 -89.04501 36506 ft 541 kts 41°
2026-05-04 21:36 46.86101 -88.96517 36499 ft 541 kts 42°
2026-05-04 21:36 46.91299 -88.88519 36498 ft 541 kts 42°
2026-05-04 21:37 46.96455 -88.80559 36501 ft 541 kts 42°
2026-05-04 21:37 47.01630 -88.72546 36491 ft 540 kts 43°
2026-05-04 21:38 47.06786 -88.64537 36481 ft 539 kts 43°
2026-05-04 21:38 47.11915 -88.56550 36458 ft 539 kts 43°
2026-05-04 21:39 47.16775 -88.48105 36461 ft 545 kts 54°
2026-05-04 21:39 47.20266 -88.38170 36458 ft 547 kts 63°
2026-05-04 21:40 47.23385 -88.27951 36458 ft 547 kts 64°
2026-05-04 21:40 47.26445 -88.17686 36462 ft 548 kts 64°
2026-05-04 21:41 47.29500 -88.07473 36457 ft 548 kts 64°
2026-05-04 21:41 47.32588 -87.97177 36459 ft 547 kts 64°
2026-05-04 21:42 47.35667 -87.86889 36460 ft 548 kts 64°
2026-05-04 21:42 47.38719 -87.76643 36447 ft 547 kts 65°
2026-05-04 21:43 47.41780 -87.66322 36449 ft 547 kts 65°
2026-05-04 21:43 47.44802 -87.56089 36449 ft 547 kts 65°
2026-05-04 21:44 47.47841 -87.45757 36447 ft 547 kts 65°
2026-05-04 21:44 47.50852 -87.35473 36447 ft 548 kts 65°
2026-05-04 21:45 47.53870 -87.25127 36450 ft 548 kts 65°
2026-05-04 21:45 47.56878 -87.14767 36457 ft 547 kts 65°
2026-05-04 21:46 47.59877 -87.04398 36440 ft 545 kts 65°
2026-05-04 21:46 47.62861 -86.94033 36460 ft 546 kts 66°
2026-05-04 21:47 47.65824 -86.83701 36446 ft 546 kts 66°
2026-05-04 21:47 47.68789 -86.73315 36441 ft 546 kts 66°
2026-05-04 21:48 47.71723 -86.62991 36425 ft 546 kts 66°
2026-05-04 21:48 47.74667 -86.52591 36443 ft 546 kts 66°
2026-05-04 21:49 47.77600 -86.42182 36437 ft 544 kts 66°
2026-05-04 21:49 47.80512 -86.31803 36439 ft 543 kts 66°
2026-05-04 21:50 47.83415 -86.21413 36437 ft 543 kts 66°
2026-05-04 21:50 47.86285 -86.11098 36440 ft 542 kts 66°
2026-05-04 21:51 47.89165 -86.00699 36429 ft 542 kts 66°
2026-05-04 21:51 47.92037 -85.90283 36424 ft 542 kts 67°
2026-05-04 21:52 47.94893 -85.79880 36435 ft 541 kts 67°
2026-05-04 21:52 47.97710 -85.69574 36434 ft 539 kts 67°
2026-05-04 21:53 48.00535 -85.59195 36438 ft 539 kts 67°
2026-05-04 21:53 48.03354 -85.48788 36438 ft 540 kts 67°
2026-05-04 21:54 48.06165 -85.38367 36440 ft 540 kts 67°
2026-05-04 21:54 48.08946 -85.28015 36434 ft 539 kts 68°
2026-05-04 21:55 48.11735 -85.17583 36437 ft 539 kts 68°
2026-05-04 21:55 48.14520 -85.07122 36433 ft 539 kts 68°
2026-05-04 21:56 48.17272 -84.96735 36431 ft 540 kts 68°
2026-05-04 21:56 48.20033 -84.86267 36411 ft 540 kts 68°
2026-05-04 21:57 48.22781 -84.75802 36417 ft 539 kts 68°
2026-05-04 21:57 48.25519 -84.65331 36418 ft 539 kts 68°
2026-05-04 21:58 48.28249 -84.54842 36409 ft 539 kts 68°
2026-05-04 21:58 48.30965 -84.44354 36429 ft 539 kts 69°
2026-05-04 21:59 48.33646 -84.33956 36408 ft 537 kts 69°
2026-05-04 21:59 48.36345 -84.23441 36404 ft 537 kts 69°
2026-05-04 22:00 48.39029 -84.12939 36404 ft 537 kts 69°
2026-05-04 22:00 48.41701 -84.02436 36397 ft 537 kts 69°
2026-05-04 22:01 48.44354 -83.91989 36396 ft 537 kts 69°
2026-05-04 22:01 48.46566 -83.83230 36396 ft 538 kts 69°
2026-05-04 22:02 48.49225 -83.72644 36402 ft 538 kts 69°
2026-05-04 22:02 48.51866 -83.62076 36389 ft 538 kts 69°
2026-05-04 22:03 48.54496 -83.51498 36392 ft 537 kts 69°
2026-05-04 22:03 48.57105 -83.40950 36385 ft 538 kts 69°
2026-05-04 22:04 48.59717 -83.30349 36387 ft 538 kts 69°
2026-05-04 22:04 48.62304 -83.19793 36396 ft 538 kts 69°
2026-05-04 22:05 48.64896 -83.09169 36385 ft 538 kts 69°
2026-05-04 22:05 48.67464 -82.98593 36382 ft 538 kts 69°
2026-05-04 22:06 48.70034 -82.87959 36382 ft 537 kts 69°
2026-05-04 22:06 48.72592 -82.77320 36371 ft 537 kts 69°
2026-05-04 22:07 48.75133 -82.66703 36378 ft 537 kts 70°
2026-05-04 22:07 48.77659 -82.56098 36358 ft 537 kts 70°
2026-05-04 22:08 48.80186 -82.45433 36374 ft 537 kts 70°
2026-05-04 22:08 48.82702 -82.34767 36389 ft 537 kts 70°
2026-05-04 22:09 48.85207 -82.24090 36371 ft 535 kts 70°
2026-05-04 22:09 48.87688 -82.13463 36371 ft 534 kts 70°
2026-05-04 22:10 48.90162 -82.02817 36382 ft 534 kts 70°
2026-05-04 22:10 48.92674 -81.92254 36366 ft 534 kts 65°
2026-05-04 22:11 48.96135 -81.82280 36374 ft 533 kts 59°
2026-05-04 22:11 48.99861 -81.72505 36367 ft 533 kts 58°
2026-05-04 22:12 49.03617 -81.62764 36386 ft 532 kts 58°
2026-05-04 22:12 49.07327 -81.53068 36377 ft 534 kts 59°
2026-05-04 22:13 49.11057 -81.43247 36389 ft 534 kts 59°
2026-05-04 22:13 49.14779 -81.33398 36387 ft 535 kts 59°
2026-05-04 22:14 49.18489 -81.23547 36392 ft 535 kts 59°
2026-05-04 22:14 49.22163 -81.13753 36379 ft 533 kts 59°
2026-05-04 22:15 49.25847 -81.03890 36381 ft 534 kts 59°
2026-05-04 22:15 49.29533 -80.93989 36382 ft 535 kts 59°
2026-05-04 22:16 49.33215 -80.84063 36380 ft 535 kts 59°
2026-05-04 22:16 49.36874 -80.74160 36376 ft 535 kts 59°
2026-05-04 22:17 49.40515 -80.64267 36378 ft 532 kts 59°
2026-05-04 22:17 49.44149 -80.54359 36374 ft 531 kts 59°
2026-05-04 22:18 49.47765 -80.44460 36383 ft 531 kts 59°
2026-05-04 22:18 49.51373 -80.34545 36377 ft 531 kts 59°
2026-05-04 22:19 49.54974 -80.24613 36382 ft 531 kts 60°
2026-05-04 22:19 49.58547 -80.14719 36376 ft 529 kts 60°
2026-05-04 22:20 49.62109 -80.04818 36374 ft 528 kts 60°
2026-05-04 22:20 49.65669 -79.94884 36378 ft 529 kts 60°
2026-05-04 22:21 49.69220 -79.84938 36383 ft 529 kts 60°
2026-05-04 22:21 49.72763 -79.74975 36384 ft 529 kts 60°
2026-05-04 22:22 49.76292 -79.65005 36393 ft 527 kts 61°
2026-05-04 22:22 49.79793 -79.55070 36392 ft 525 kts 61°
2026-05-04 22:23 49.83267 -79.45179 36390 ft 526 kts 61°
2026-05-04 22:23 49.86767 -79.35185 36396 ft 526 kts 61°
2026-05-04 22:24 49.90231 -79.25252 36403 ft 526 kts 62°
2026-05-04 22:24 49.93708 -79.15245 36406 ft 525 kts 62°
2026-05-04 22:25 49.97174 -79.05232 36405 ft 525 kts 62°
2026-05-04 22:25 50.00598 -78.95293 36415 ft 525 kts 62°
2026-05-04 22:26 50.04041 -78.85260 36420 ft 525 kts 62°
2026-05-04 22:26 50.07476 -78.75218 36426 ft 525 kts 62°
2026-05-04 22:27 50.10902 -78.65162 36438 ft 525 kts 62°
2026-05-04 22:27 50.14291 -78.55175 36439 ft 523 kts 62°
2026-05-04 22:28 50.17692 -78.45110 36432 ft 523 kts 62°
2026-05-04 22:28 50.21080 -78.35045 36463 ft 523 kts 62°
2026-05-04 22:29 50.24454 -78.24982 36460 ft 523 kts 62°
2026-05-04 22:29 50.27821 -78.14901 36481 ft 523 kts 62°
2026-05-04 22:30 50.31154 -78.04881 36477 ft 522 kts 63°
2026-05-04 22:30 50.34496 -77.94792 36479 ft 522 kts 63°
2026-05-04 22:31 50.37837 -77.84666 36490 ft 522 kts 62°
2026-05-04 22:31 50.41149 -77.74590 36487 ft 522 kts 62°
2026-05-04 22:32 50.44476 -77.64444 36498 ft 522 kts 62°
2026-05-04 22:32 50.47791 -77.54290 36498 ft 522 kts 62°
2026-05-04 22:33 50.51075 -77.44176 36509 ft 522 kts 63°
2026-05-04 22:33 50.54369 -77.33988 36516 ft 522 kts 62°
2026-05-04 22:34 50.57645 -77.23813 36523 ft 521 kts 62°
2026-05-04 22:34 50.60916 -77.13612 36523 ft 521 kts 62°
2026-05-04 22:35 50.64177 -77.03408 36537 ft 520 kts 63°
2026-05-04 22:35 50.67399 -76.93280 36526 ft 519 kts 63°
2026-05-04 22:36 50.70627 -76.83089 36516 ft 519 kts 63°
2026-05-04 22:36 50.73851 -76.72870 36532 ft 519 kts 63°
2026-05-04 22:37 50.77039 -76.62721 36530 ft 518 kts 63°
2026-05-04 22:37 50.80235 -76.52507 36544 ft 518 kts 63°
2026-05-04 22:38 50.83409 -76.42317 36542 ft 515 kts 63°
2026-05-04 22:38 50.86571 -76.32128 36551 ft 514 kts 63°
2026-05-04 22:39 50.89716 -76.21948 36536 ft 514 kts 63°
2026-05-04 22:39 50.92832 -76.11819 36540 ft 514 kts 63°
2026-05-04 22:40 50.95965 -76.01596 36542 ft 514 kts 63°
2026-05-04 22:40 50.99081 -75.91386 36524 ft 513 kts 63°
2026-05-04 22:41 51.02163 -75.81242 36528 ft 513 kts 63°
2026-05-04 22:41 51.05255 -75.71027 36544 ft 513 kts 63°
2026-05-04 22:42 51.08339 -75.60791 36547 ft 512 kts 63°
2026-05-04 22:42 51.11408 -75.50560 36545 ft 511 kts 63°
2026-05-04 22:43 51.14464 -75.40334 36550 ft 511 kts 64°
2026-05-04 22:43 51.17487 -75.30172 36542 ft 510 kts 64°
2026-05-04 22:44 51.20517 -75.19945 36549 ft 509 kts 64°
2026-05-04 22:44 51.23536 -75.09720 36543 ft 509 kts 64°
2026-05-04 22:45 51.27305 -75.00209 36531 ft 507 kts 51°
2026-05-04 22:45 51.33868 -74.86916 36543 ft 506 kts 50°
2026-05-04 22:46 51.38285 -74.78151 36545 ft 505 kts 50°
2026-05-04 22:46 51.42649 -74.69424 36567 ft 505 kts 50°
2026-05-04 22:47 51.47035 -74.60587 36563 ft 505 kts 50°
2026-05-04 22:47 51.51403 -74.51749 36569 ft 506 kts 50°
2026-05-04 22:48 51.55776 -74.42869 36568 ft 506 kts 51°
2026-05-04 22:48 51.59399 -74.35490 36572 ft 506 kts 50°
2026-05-04 22:49 51.63753 -74.26596 36591 ft 505 kts 51°
2026-05-04 22:49 51.68090 -74.17703 36592 ft 505 kts 51°
2026-05-04 22:50 51.72429 -74.08778 36589 ft 505 kts 51°
2026-05-04 22:50 51.76757 -73.99844 36591 ft 504 kts 51°
2026-05-04 22:51 51.81053 -73.90945 36594 ft 504 kts 51°
2026-05-04 22:51 51.85359 -73.81992 36599 ft 504 kts 51°
2026-05-04 22:52 51.89660 -73.73022 36605 ft 504 kts 51°
2026-05-04 22:52 51.93942 -73.64058 36601 ft 503 kts 52°
2026-05-04 22:53 51.98212 -73.55087 36610 ft 502 kts 52°
2026-05-04 22:53 52.02479 -73.46091 36613 ft 502 kts 52°
2026-05-04 22:54 52.06738 -73.37083 36610 ft 502 kts 52°
2026-05-04 22:54 52.10953 -73.28133 36618 ft 501 kts 52°
2026-05-04 22:55 52.15193 -73.19101 36632 ft 501 kts 52°
2026-05-04 22:55 52.19421 -73.10062 36629 ft 501 kts 52°
2026-05-04 22:56 52.23614 -73.01067 36637 ft 501 kts 52°
2026-05-04 22:56 52.27830 -72.91989 36642 ft 501 kts 52°
2026-05-04 22:57 52.32033 -72.82907 36646 ft 501 kts 52°
2026-05-04 22:57 52.36234 -72.73798 36646 ft 501 kts 53°
2026-05-04 22:58 52.40425 -72.64677 36648 ft 501 kts 53°
2026-05-04 22:58 52.44584 -72.55594 36657 ft 501 kts 53°
2026-05-04 22:59 52.48760 -72.46442 36656 ft 501 kts 53°
2026-05-04 22:59 52.52928 -72.37273 36659 ft 501 kts 53°
2026-05-04 23:00 52.57087 -72.28091 36662 ft 501 kts 53°
2026-05-04 23:00 52.61243 -72.18883 36664 ft 501 kts 53°
2026-05-04 23:01 52.65358 -72.09733 36666 ft 500 kts 53°
2026-05-04 23:01 52.69498 -72.00494 36659 ft 500 kts 53°
2026-05-04 23:02 52.73623 -71.91256 36659 ft 500 kts 54°
2026-05-04 23:02 52.77739 -71.82001 36662 ft 500 kts 54°
2026-05-04 23:03 52.81852 -71.72723 36666 ft 500 kts 54°
2026-05-04 23:03 52.85957 -71.63429 36659 ft 500 kts 54°
2026-05-04 23:04 52.90025 -71.54184 36661 ft 500 kts 54°
2026-05-04 23:04 52.94116 -71.44851 36664 ft 500 kts 54°
2026-05-04 23:05 52.98195 -71.35512 36662 ft 499 kts 54°
2026-05-04 23:05 53.02262 -71.26166 36664 ft 499 kts 54°
2026-05-04 23:06 53.06322 -71.16804 36664 ft 499 kts 55°
2026-05-04 23:06 53.10372 -71.07428 36664 ft 499 kts 55°
2026-05-04 23:07 53.14417 -70.98030 36663 ft 499 kts 55°
2026-05-04 23:07 53.18428 -70.88674 36661 ft 499 kts 55°
2026-05-04 23:08 53.22454 -70.79252 36662 ft 499 kts 55°
2026-05-04 23:08 53.26471 -70.69813 36657 ft 498 kts 55°
2026-05-04 23:09 53.30479 -70.60360 36674 ft 498 kts 55°
2026-05-04 23:09 53.34476 -70.50899 36673 ft 498 kts 55°
2026-05-04 23:10 53.38465 -70.41420 36664 ft 498 kts 56°
2026-05-04 23:10 53.42441 -70.31937 36678 ft 497 kts 56°
2026-05-04 23:11 53.46412 -70.22432 36678 ft 497 kts 56°
2026-05-04 23:11 53.50374 -70.12910 36680 ft 497 kts 56°
2026-05-04 23:12 53.54331 -70.03364 36665 ft 497 kts 56°
2026-05-04 23:12 53.58252 -69.93871 36681 ft 497 kts 56°
2026-05-04 23:13 53.62186 -69.84310 36675 ft 496 kts 56°
2026-05-04 23:13 53.66101 -69.74756 36675 ft 495 kts 56°
2026-05-04 23:14 53.70010 -69.65184 36675 ft 495 kts 56°
2026-05-04 23:14 53.73911 -69.55594 36675 ft 495 kts 57°